When you browse on this site, cookies collect data to enhance your experience and personalize the content and advertising you see.
Visit our Privacy Policy to learn more. By continuing to use the site, you agree to this use of cookies and data.
  • In United Kingdom
  • List of Countries
  • For 7 days
  • Water Temperature
  • Weather Map
  • Weather Widgets
  • user-avatar
    Login

    Hourly Weather Kecskemet

    Today, 2 April, Thursday

    Time Temperature Precipitation Wind Pressure Humidity
    00:00 +2°C° 0 mm 1 mps 753 mmHg 42%
    01:00 +2°C° 0 mm 1 mps 753 mmHg 46%
    02:00 -1°C° 0 mm 2 mps 753 mmHg 49%
    03:00 -1°C° 0 mm 2 mps 753 mmHg 53%
    04:00 -2°C° 0 mm 2 mps 752 mmHg 57%
    05:00 -1°C° 0 mm 2 mps 753 mmHg 57%
    06:00 +1°C° 0 mm 2 mps 753 mmHg 57%
    07:00 +2°C° 0 mm 2 mps 753 mmHg 55%
    08:00 +4°C° 0 mm 2 mps 753 mmHg 49%
    09:00 +6°C° 0 mm 2 mps 753 mmHg 43%
    10:00 +7°C° 0 mm 2 mps 752 mmHg 36%
    11:00 +8°C° 0 mm 2 mps 752 mmHg 36%
    12:00 +9°C° 0 mm 2 mps 752 mmHg 36%
    13:00 +10°C° 0 mm 2 mps 752 mmHg 36%
    14:00 +10°C° 0 mm 2 mps 751 mmHg 37%
    15:00 +10°C° 0 mm 2 mps 750 mmHg 38%
    16:00 +10°C° 0 mm 2 mps 749 mmHg 39%
    17:00 +8°C° 0 mm 2 mps 749 mmHg 45%
    18:00 +8°C° 0 mm 1 mps 749 mmHg 50%
    19:00 +6°C° 0 mm 1 mps 749 mmHg 55%
    20:00 +6°C° 0 mm 1 mps 749 mmHg 57%
    21:00 +5°C° 0 mm 1 mps 749 mmHg 59%
    22:00 +5°C° 0 mm 1 mps 749 mmHg 61%
    23:00 +5°C° 0 mm 1 mps 749 mmHg 62%

    Tomorrow, 3 April, Friday

    Time Temperature Precipitation Wind Pressure Humidity
    00:00 +3°C° 0 mm 2 mps 749 mmHg 63%
    01:00 +3°C° 0 mm 2 mps 749 mmHg 65%
    02:00 +3°C° 0 mm 2 mps 749 mmHg 67%
    03:00 +2°C° 0 mm 2 mps 749 mmHg 68%
    04:00 +2°C° 0 mm 2 mps 748 mmHg 70%
    05:00 +3°C° 0 mm 2 mps 749 mmHg 69%
    06:00 +4°C° 0 mm 2 mps 749 mmHg 68%
    07:00 +4°C° 0 mm 2 mps 749 mmHg 66%
    08:00 +6°C° 0 mm 2 mps 749 mmHg 61%
    09:00 +8°C° 0 mm 2 mps 750 mmHg 56%
    10:00 +10°C° 0 mm 2 mps 750 mmHg 50%
    11:00 +12°C° 0 mm 2 mps 750 mmHg 47%
    12:00 +13°C° 0 mm 2 mps 750 mmHg 44%
    13:00 +14°C° 0 mm 2 mps 750 mmHg 41%
    14:00 +13°C° 0 mm 3 mps 749 mmHg 41%
    15:00 +14°C° 0 mm 3 mps 749 mmHg 41%
    16:00 +14°C° 0 mm 4 mps 749 mmHg 41%
    17:00 +12°C° 0 mm 3 mps 749 mmHg 47%
    18:00 +10°C° 0 mm 3 mps 750 mmHg 53%
    19:00 +9°C° 0 mm 2 mps 750 mmHg 59%
    20:00 +8°C° 0 mm 2 mps 751 mmHg 61%
    21:00 +7°C° 0 mm 2 mps 751 mmHg 63%
    22:00 +7°C° 0 mm 2 mps 751 mmHg 64%
    23:00 +7°C° 0 mm 2 mps 752 mmHg 66%

    Day after tomorrow, 4 April, Saturday

    Time Temperature Precipitation Wind Pressure Humidity
    00:00 +5°C° 0 mm 3 mps 752 mmHg 68%
    01:00 +5°C° 0 mm 3 mps 753 mmHg 70%
    02:00 +4°C° 0 mm 3 mps 753 mmHg 72%
    03:00 +4°C° 0 mm 3 mps 753 mmHg 74%
    04:00 +4°C° 0 mm 3 mps 753 mmHg 76%
    05:00 +4°C° 0 mm 3 mps 754 mmHg 75%
    06:00 +5°C° 0 mm 3 mps 754 mmHg 73%
    07:00 +7°C° 0 mm 3 mps 755 mmHg 72%
    08:00 +8°C° 0 mm 4 mps 755 mmHg 66%
    09:00 +10°C° 0 mm 4 mps 756 mmHg 60%
    10:00 +12°C° 0 mm 4 mps 756 mmHg 54%
    11:00 +13°C° 0 mm 4 mps 756 mmHg 51%
    12:00 +13°C° 0 mm 4 mps 756 mmHg 48%
    13:00 +14°C° 0 mm 4 mps 756 mmHg 46%
    14:00 +14°C° 0 mm 4 mps 756 mmHg 48%
    15:00 +13°C° 0 mm 5 mps 756 mmHg 50%
    16:00 +13°C° 0 mm 5 mps 756 mmHg 51%
    17:00 +12°C° 0 mm 4 mps 756 mmHg 56%
    18:00 +10°C° 0 mm 4 mps 757 mmHg 60%
    19:00 +8°C° 0 mm 4 mps 757 mmHg 64%
    20:00 +7°C° 0 mm 4 mps 758 mmHg 63%
    21:00 +6°C° 0 mm 4 mps 758 mmHg 63%
    22:00 +6°C° 0 mm 5 mps 759 mmHg 62%
    23:00 +5°C° 0 mm 5 mps 759 mmHg 63%

    5 April, Sunday

    Time Temperature Precipitation Wind Pressure Humidity
    00:00 +5°C° 0 mm 5 mps 760 mmHg 63%
    01:00 +3°C° 0 mm 5 mps 760 mmHg 63%
    02:00 +3°C° 0 mm 5 mps 760 mmHg 63%
    03:00 +3°C° 0 mm 5 mps 760 mmHg 62%
    04:00 +2°C° 0 mm 5 mps 760 mmHg 62%
    05:00 +3°C° 0 mm 6 mps 760 mmHg 61%
    06:00 +3°C° 0 mm 6 mps 761 mmHg 59%
    07:00 +3°C° 0 mm 6 mps 761 mmHg 58%
    08:00 +5°C° 0 mm 6 mps 761 mmHg 57%
    09:00 +8°C° 0 mm 6 mps 761 mmHg 56%
    10:00 +10°C° 0 mm 5 mps 762 mmHg 55%
    11:00 +12°C° 0 mm 5 mps 761 mmHg 53%
    12:00 +13°C° 0 mm 5 mps 761 mmHg 50%
    13:00 +14°C° 0 mm 4 mps 761 mmHg 48%
    14:00 +15°C° 0 mm 4 mps 761 mmHg 48%
    15:00 +15°C° 0 mm 4 mps 760 mmHg 48%
    16:00 +16°C° 0 mm 3 mps 760 mmHg 48%
    17:00 +13°C° 0 mm 3 mps 760 mmHg 54%
    18:00 +12°C° 0 mm 3 mps 760 mmHg 61%
    19:00 +10°C° 0 mm 3 mps 760 mmHg 67%
    20:00 +9°C° 0 mm 3 mps 761 mmHg 69%
    21:00 +9°C° 0 mm 3 mps 761 mmHg 70%
    22:00 +8°C° 0 mm 3 mps 762 mmHg 71%
    23:00 +7°C° 0 mm 3 mps 762 mmHg 69%

    6 April, Monday

    Time Temperature Precipitation Wind Pressure Humidity
    00:00 +7°C° 0 mm 3 mps 762 mmHg 67%
    01:00 +5°C° 0 mm 3 mps 762 mmHg 65%
    02:00 +5°C° 0 mm 3 mps 762 mmHg 64%
    03:00 +5°C° 0 mm 3 mps 763 mmHg 63%
    04:00 +5°C° 0 mm 4 mps 763 mmHg 62%
    05:00 +5°C° 0 mm 4 mps 763 mmHg 59%
    06:00 +6°C° 0 mm 4 mps 764 mmHg 56%
    07:00 +6°C° 0 mm 4 mps 764 mmHg 53%
    08:00 +8°C° 0 mm 4 mps 764 mmHg 50%
    09:00 +10°C° 0 mm 4 mps 765 mmHg 46%
    10:00 +12°C° 0 mm 4 mps 765 mmHg 43%
    11:00 +13°C° 0 mm 4 mps 765 mmHg 42%
    12:00 +14°C° 0 mm 4 mps 764 mmHg 41%
    13:00 +14°C° 0 mm 5 mps 764 mmHg 40%
    14:00 +15°C° 0 mm 5 mps 764 mmHg 40%
    15:00 +15°C° 0 mm 5 mps 764 mmHg 40%
    16:00 +15°C° 0 mm 5 mps 763 mmHg 41%
    17:00 +13°C° 0 mm 4 mps 763 mmHg 47%
    18:00 +11°C° 0 mm 3 mps 763 mmHg 52%
    19:00 +9°C° 0 mm 3 mps 763 mmHg 58%
    20:00 +9°C° 0 mm 3 mps 763 mmHg 59%
    21:00 +8°C° 0 mm 3 mps 763 mmHg 59%
    22:00 +7°C° 0 mm 3 mps 764 mmHg 60%
    23:00 +7°C° 0 mm 3 mps 764 mmHg 57%

    7 April, Tuesday

    Time Temperature Precipitation Wind Pressure Humidity
    00:00 +5°C° 0 mm 3 mps 764 mmHg 53%
    01:00 +5°C° 0 mm 3 mps 764 mmHg 50%
    02:00 +4°C° 0 mm 3 mps 764 mmHg 49%
    03:00 +4°C° 0 mm 3 mps 764 mmHg 48%
    04:00 +4°C° 0 mm 2 mps 764 mmHg 47%
    05:00 +4°C° 0 mm 3 mps 765 mmHg 47%
    06:00 +4°C° 0 mm 3 mps 765 mmHg 47%
    07:00 +5°C° 0 mm 3 mps 765 mmHg 47%
    08:00 +8°C° 0 mm 3 mps 765 mmHg 44%
    09:00 +10°C° 0 mm 3 mps 766 mmHg 41%
    10:00 +11°C° 0 mm 3 mps 766 mmHg 38%
    11:00 +12°C° 0 mm 3 mps 765 mmHg 38%
    12:00 +14°C° 0 mm 3 mps 765 mmHg 37%
    13:00 +16°C° 0 mm 3 mps 765 mmHg 36%
    14:00 +16°C° 0 mm 3 mps 765 mmHg 36%
    15:00 +16°C° 0 mm 2 mps 764 mmHg 37%
    16:00 +16°C° 0 mm 2 mps 764 mmHg 38%
    17:00 +15°C° 0 mm 2 mps 764 mmHg 43%
    18:00 +13°C° 0 mm 1 mps 764 mmHg 48%
    19:00 +11°C° 0 mm 1 mps 763 mmHg 52%
    20:00 +10°C° 0 mm 1 mps 764 mmHg 54%
    21:00 +10°C° 0 mm 1 mps 764 mmHg 55%
    22:00 +9°C° 0 mm 1 mps 764 mmHg 56%
    23:00 +9°C° 0 mm 1 mps 764 mmHg 57%
    Show more